Location: Baia Mare
(47.6567°N, 23.5850°E)
Time: 22:37:15
(UTC+03:00)

ISS - Pass Details

Date: 21 September 2019
Orbit: 411 x 421 km, 51.6° (Epoch: 19 September)

Event Time Altitude Azimuth Distance (km) Brightness Sun altitude
Rises 21:35:49 0° 248° (WSW) 2,337 0.6 -21.8°
Reaches altitude 10° 21:37:54 10° 250° (WSW) 1,477 -0.5 -22.1°
Enters shadow 21:40:17 44° 257° (WSW) 579 -2.8 -22.5°
